Preview of NWS' New Version of Forecast
This preview is not operational and should not be used for support decisions.
Latest weather observations around

Concord, Buchanan Field (KCCR)

Using English Units (Switch to International System of Units)
Date/ Time (PDT) Wind (mph) Vis. (mi) Weather Sky Cond. Temp (°F) Rel. Humidity Wind Chill (°F) Heat Index (°F) Pressure Precip. (in)
Air Dwpt 6 hour Altimeter (inHg) Sea level (inHg) 1 hr 3 hr 6 hr
Max Min
Mar 26 12:53 S 6 10 Mostly Cloudy SCT045 BKN055 64 44     48%     30.03        
Mar 26 11:53 Calm 10 Mostly Clear FEW030 62 43     50%     30.05        
Mar 26 10:53 3 10 Clear CLR 59 47     64%     30.06        
Mar 26 09:53 WSW 5 10 Clear CLR 54 47     77%     30.06        
Mar 26 08:53 Calm 10 Clear CLR 51 48     89%     30.06        
Mar 26 07:53 Calm 8 Clear CLR 50 46     86%     30.05        
Mar 26 06:53 Calm 10 Partly Cloudy SCT070 49 45     86%     30.06        
Mar 26 05:53 SW 5 10 Cloudy OVC070 51 47     86%     30.05        
Mar 26 04:53 Calm 10 Cloudy OVC070 52 47     83%     30.05       0
Mar 26 03:53 W 3 10 Cloudy OVC070 52 47     83%     30.06        
Mar 26 03:11 W 6 10 Cloudy FEW019 SCT028 OVC065 53 48     83%     30.06        
Mar 26 02:53 W 5 10 Cloudy SCT009 BKN023 OVC060 53 49     86%     30.07   0    
Mar 26 02:35 SW 3 10 Cloudy BKN009 OVC014 53 50     89%     30.07   0    
Mar 26 01:53 S 3 7 Light Rain OVC013 54 50     86%     30.07   0 0  
Mar 26 01:39 Calm 9 Light Rain OVC014 54 50     86%     30.07   0    
Mar 26 01:13 SSW 5 9 Light Rain SCT015 BKN028 OVC040 54 49     83%     30.07   0    
Mar 26 00:53 SSW 3 10 Cloudy FEW008 BKN034 OVC041 54 49     83%     30.07   0    
Mar 26 00:35 SSW 6 5 Light Rain and Fog/Mist FEW006 OVC032 54 50     86%     30.07   0    
Mar 26 00:06 Calm 3 Light Rain and Fog/Mist FEW012 SCT025 OVC031 54 50     86%     30.07   0    
Mar 26 00:01 Calm 2.5 Light Rain and Fog/Mist FEW012 SCT021 OVC027 54 50     86%     30.07   0    
Mar 25 23:53 WNW 3 3 Light Rain and Fog/Mist SCT012 BKN021 OVC026 54 50     86%     30.07   0    
Mar 25 23:50 W 5 4 Light Rain and Fog/Mist FEW009 SCT012 OVC021 54 50     88%     30.08   0    
Mar 25 23:40 WNW 5 3 Light Rain and Fog/Mist FEW004 BKN013 OVC021 54 51     90%     30.08   0    
Mar 25 23:32 NW 3 2.5 Light Rain and Fog/Mist FEW004 SCT013 OVC021 54 51     90%     30.07   0    
Mar 25 23:14 Calm 6 Light Rain and Fog/Mist FEW005 FEW022 OVC028 55 51     86%     30.07   0    
Mar 25 22:53 Calm 7 Light Rain OVC034 55 51     86%     30.07   0   0
Mar 25 22:13 Calm 10 Cloudy FEW022 BKN039 OVC075 55 51     86%     30.07   0    
Mar 25 21:53 W 3 9 Light Rain FEW009 OVC023 55 51     86%     30.08   0    
Mar 25 21:24 Calm 10 Cloudy FEW009 BKN022 OVC060 55 51     86%     30.07   0    
Mar 25 20:53 W 8 10 Light Rain SCT022 SCT037 OVC055 55 51     86%     30.06   0    
Mar 25 20:33 W 10 10 Light Rain BKN022 BKN038 OVC055 56 51     84%     30.06   0    
Mar 25 19:53 S 7 7 Light Rain FEW024 SCT030 OVC070 56 52     87%     30.06   0 0  
Mar 25 18:53 SSW 6 7 Light Rain OVC075 57 52     83%     30.06   0    
Mar 25 18:18 SSW 7 4 Light Rain FEW020 BKN031 OVC075 58 53     84%     30.05   0    
Mar 25 18:08 S 7 4 Light Rain and Fog/Mist SCT020 BKN028 OVC033 58 54     87%     30.05   0    
Mar 25 17:53 S 7 8 Light Rain SCT020 OVC030 58 54     87%     30.05   0    
Mar 25 16:53 SSW 6 3 Light Rain and Fog/Mist OVC036 58 54     87%     30.06   0   0
Mar 25 16:45 SSW 5 1.5 Rain and Fog/Mist OVC036 58 54     87%     30.06   0    
Mar 25 16:38 SSW 6 2 Light Rain OVC036 58 53     84%     30.06   0    
Mar 25 15:53 SW 10 3 Light Rain BKN036 OVC048 58 53     84%     30.07   0    
Mar 25 15:39 SSW 13 2 Heavy Rain BKN034 OVC043 58 52     81%     30.07   0    
Mar 25 14:53 WSW 14 6 Light Rain OVC036 62 49     62%     30.07   0    
Mar 25 13:53 S 14 10 Light Rain OVC043 64 45     50%     30.07   0 0  
Mar 25 12:53 S 16 10 Mostly Cloudy FEW060 FEW090 BKN110 66 43     43%     30.06        
Mar 25 11:53 SSE 18 10 Mostly Cloudy FEW090 BKN110 64 38     38%     30.06        
Mar 25 10:53 S 15 10 Partly Cloudy FEW038 SCT110 63 36     37%     30.08        
Mar 25 09:53 S 8 10 Partly Cloudy SCT050 59 39     47%     30.09        
Mar 25 08:53 SW 9 10 Cloudy OVC120 56 42     60%     30.07        
Mar 25 07:53 E 5 10 Mostly Cloudy BKN120 50 42     74%     30.04        
Mar 25 06:53 S 5 10 Clear CLR 49 41     74% 47   30.04        
Mar 25 05:53 SSE 3 10 Clear CLR 49 41     74% 48   30.04        
Mar 25 04:53 S 3 10 Clear   49 42     77% 48   30.04        
Mar 25 03:53 Calm 10 Clear CLR 51 43     74%     30.06        
Mar 25 02:53 Calm 10 Clear CLR 54 43     66%     30.08        
Mar 25 01:53 Calm 10 Clear CLR 54 43     66%     30.1        
Mar 25 00:53 Calm 10 Clear CLR 55 41     59%     30.12        
Mar 24 23:53 Calm 10 Clear CLR 56 40     55%     30.13        
Mar 24 22:53 SSE 3 10 Clear CLR 56 40     55%     30.14        
Mar 24 21:53 SSE 5 10 Clear CLR 57 42     57%     30.14        
Mar 24 20:53 Calm 10 Clear CLR 58 38     47%     30.14        
Mar 24 19:53 S 8 10 Clear CLR 60 45     57%     30.12        
Mar 24 18:53 ENE 6 10 Clear CLR 62 47     58%     30.13        
Mar 24 17:53 ENE 7 10 Clear CLR 65 45     48%     30.13        
Mar 24 16:53 NE 8 10 Clear CLR 65 43     45%     30.14        
Mar 24 15:53 ENE 9 10 Clear CLR 64 44     48%     30.16        
Mar 24 14:53 ENE 9 10 Clear CLR 63 45     52%     30.17        
Mar 24 13:53 ENE 6 10 Mostly Clear FEW033 62 45     53%     30.2        
Mar 24 12:53   10 Clear CLR 62 47     58%     30.23        
Mar 24 11:53 NE 5 10 Mostly Clear FEW030 59 46     62%     30.24        
Mar 24 10:53 NNE 7 10 Mostly Clear FEW020 58 45     62%     30.25        
Mar 24 09:53 NE 8 10 Clear CLR 53 44     71%     30.25        
Mar 24 08:53 S 3 10 Clear CLR 49 42     77% 48   30.24        
Mar 24 07:53 S 5 10 Clear CLR 44 39     82% 41   30.23        
Mar 24 06:53 SSE 3 10 Clear CLR 44 39     82% 43   30.22        
Mar 24 05:53 S 6 10 Clear CLR 45 40     82% 42   30.21        
Mar 24 04:53 SSE 5 10 Clear CLR 45 40     82% 43   30.2        
Mar 24 03:53 SE 5 10 Clear CLR 46 40     79% 44   30.21        
Mar 24 02:53 S 5 10 Clear CLR 46 40     79% 44   30.22        
Mar 24 01:53 SSE 5 10 Clear CLR 46 40     79% 44   30.23        
Mar 24 00:53 S 5 10 Clear CLR 48 41     77% 46   30.23        
Mar 23 23:53 SE 6 10 Clear CLR 50 43     77%     30.25        
Mar 23 22:53 WSW 5 10 Clear CLR 51 43     74%     30.24        
Mar 23 21:53 SW 6 10 Clear CLR 52 44     74%     30.23        
Mar 23 20:53 SW 6 10 Clear CLR 54 44     69%     30.22        
Mar 23 19:53 W 7 10 Clear CLR 56 41     57%     30.2        
Mar 23 18:53 W 11 10 Clear CLR 58 41     53%     30.19        
Mar 23 17:53 WNW 13 10 Mostly Clear FEW035 61 40     46%     30.18        
Mar 23 16:53 NW 14 10 Mostly Clear FEW035 62 40     44%     30.18        
Mar 23 15:53 W 13 10 Mostly Cloudy BKN049 BKN060 63 40     43%     30.18        
Mar 23 14:53 W 13 10 Mostly Cloudy BKN047 64 43     46%     30.18        
Mar 23 13:53 W 8 10 Partly Cloudy SCT044 62 42     48%     30.19        
Mar 23 12:53 WNW 15 10 Partly Cloudy SCT060 62 41     46%     30.19        
May 15 01:49 W 6 10 Mostly Cloudy BKN020 55 48     77%     29.99        
May 14 19:53 SW 15 10 Clear CLR 59 48     67%     29.96        
May 14 17:53 W 18 10 Clear CLR 64 48     56%     29.94        
May 14 15:53   10 Clear CLR 66 48     52%     29.96        
May 14 14:53 WSW 20 10 Mostly Clear and Windy FEW026 66 49     54%     29.98        
May 14 04:53 WSW 10 10 Cloudy OVC016 55 47     74%     29.99        
May 12 13:53   10 Clear   79 47     32%   78 29.84        
May 11 18:53   10 Clear CLR 83 32     16%   80 29.73        
Jun 12 06:53 SSW 8 10 Clear CLR 56 49     77%     30.05        
Jun 11 17:53   10 Mostly Cloudy SCT046 BKN085 65 44     47%     29.94        
Jun 11 16:53 W 17 10 Clear CLR 69 43     39%     29.91        
Jun 10 19:53 WNW 16 10 Mostly Clear FEW037 64 47     54%     29.92        
Jun 10 13:53 WNW 16 10 Partly Cloudy SCT040 73 43     34%   72 29.94        
Jun 10 07:53   10 Clear CLR 60 44     55%     29.95        
Jun 09 20:53 SW 11 10 Clear CLR 61 45     56%     29.95        
Jun 09 09:06 W 10 10 Cloudy BKN019 OVC029 63 57     81%     29.94        
Jun 09 04:53 SSW 3 10 Cloudy OVC029 62 57     84%     29.94       0
Jun 09 01:53 WSW 8 10 Cloudy FEW011 OVC025 62 58     86%     29.96     0  
Jun 08 20:53 WNW 5 10 Cloudy OVC035 64 59     84%     29.98        
Jun 08 10:00 SSW 9 10 Cloudy OVC029 63 47     56%     30.01        
Jun 07 06:53   10 Mostly Clear FEW012 56 51     84%     29.89